When you browse on this site, cookies collect data to enhance your experience and personalize the content and advertising you see.
Visit our Privacy Policy to learn more. By continuing to use the site, you agree to this use of cookies and data.

Météo par heure à Crète

Ce jour, 6 Août, Jeudi

Heure Température Précipitation Vent Pression Humidité
00:00 +25°C° 0 mm 1 m/s 704 mmHg 45%
01:00 +24°C° 0 mm 1 m/s 704 mmHg 45%
02:00 +24°C° 0 mm 1 m/s 704 mmHg 44%
03:00 +24°C° 0 mm 1 m/s 704 mmHg 45%
04:00 +23°C° 0 mm 1 m/s 704 mmHg 46%
05:00 +23°C° 0 mm 1 m/s 704 mmHg 47%
06:00 +25°C° 0 mm 1 m/s 704 mmHg 42%
07:00 +28°C° 0 mm 1 m/s 704 mmHg 37%
08:00 +30°C° 0 mm 1 m/s 705 mmHg 32%
09:00 +31°C° 0 mm 2 m/s 705 mmHg 32%
10:00 +33°C° 0 mm 3 m/s 706 mmHg 33%
11:00 +34°C° 0 mm 4 m/s 707 mmHg 33%
12:00 +34°C° 0 mm 4 m/s 707 mmHg 32%
13:00 +35°C° 0 mm 4 m/s 706 mmHg 31%
14:00 +35°C° 0 mm 4 m/s 706 mmHg 30%
15:00 +34°C° 0 mm 4 m/s 706 mmHg 34%
16:00 +33°C° 0 mm 4 m/s 706 mmHg 38%
17:00 +32°C° 0 mm 4 m/s 706 mmHg 42%
18:00 +29°C° 0 mm 3 m/s 706 mmHg 55%
19:00 +26°C° 0 mm 2 m/s 706 mmHg 68%
20:00 +24°C° 0 mm 2 m/s 706 mmHg 81%
21:00 +23°C° 0 mm 2 m/s 706 mmHg 80%
22:00 +23°C° 0 mm 2 m/s 706 mmHg 79%
23:00 +23°C° 0 mm 2 m/s 706 mmHg 78%

Demain, 7 Août, Vendredi

Heure Température Précipitation Vent Pression Humidité
00:00 +23°C° 0 mm 2 m/s 705 mmHg 76%
01:00 +21°C° 0 mm 2 m/s 705 mmHg 75%
02:00 +21°C° 0 mm 2 m/s 705 mmHg 74%
03:00 +20°C° 0 mm 2 m/s 705 mmHg 73%
04:00 +20°C° 0 mm 2 m/s 705 mmHg 73%
05:00 +20°C° 0 mm 2 m/s 704 mmHg 72%
06:00 +23°C° 0 mm 2 m/s 705 mmHg 63%
07:00 +25°C° 0 mm 2 m/s 706 mmHg 54%
08:00 +27°C° 0 mm 3 m/s 706 mmHg 44%
09:00 +28°C° 0 mm 4 m/s 707 mmHg 42%
10:00 +29°C° 0 mm 4 m/s 707 mmHg 39%
11:00 +32°C° 0 mm 5 m/s 707 mmHg 37%
12:00 +30°C° 0 mm 5 m/s 707 mmHg 38%
13:00 +30°C° 0 mm 5 m/s 707 mmHg 40%
14:00 +30°C° 0 mm 6 m/s 707 mmHg 41%
15:00 +29°C° 0 mm 5 m/s 707 mmHg 45%
16:00 +28°C° 0 mm 5 m/s 707 mmHg 50%
17:00 +27°C° 0 mm 5 m/s 706 mmHg 54%
18:00 +25°C° 0 mm 4 m/s 706 mmHg 64%
19:00 +22°C° 0 mm 3 m/s 706 mmHg 74%
20:00 +20°C° 0 mm 3 m/s 706 mmHg 84%
21:00 +20°C° 0 mm 2 m/s 706 mmHg 84%
22:00 +20°C° 0 mm 2 m/s 706 mmHg 83%
23:00 +19°C° 0 mm 2 m/s 706 mmHg 83%

Après-demain, 8 Août, Samedi

Heure Température Précipitation Vent Pression Humidité
00:00 +19°C° 0 mm 2 m/s 705 mmHg 80%
01:00 +19°C° 0 mm 2 m/s 705 mmHg 77%
02:00 +20°C° 0 mm 1 m/s 705 mmHg 73%
03:00 +19°C° 0 mm 2 m/s 705 mmHg 69%
04:00 +18°C° 0 mm 2 m/s 704 mmHg 65%
05:00 +18°C° 0 mm 2 m/s 704 mmHg 60%
06:00 +20°C° 0 mm 2 m/s 705 mmHg 55%
07:00 +24°C° 0 mm 2 m/s 705 mmHg 50%
08:00 +26°C° 0 mm 3 m/s 705 mmHg 44%
09:00 +27°C° 0 mm 4 m/s 706 mmHg 43%
10:00 +28°C° 0 mm 4 m/s 706 mmHg 41%
11:00 +30°C° 0 mm 5 m/s 706 mmHg 39%
12:00 +29°C° 0 mm 5 m/s 706 mmHg 42%
13:00 +29°C° 0 mm 6 m/s 706 mmHg 45%
14:00 +29°C° 0 mm 6 m/s 706 mmHg 47%
15:00 +28°C° 0 mm 6 m/s 705 mmHg 50%
16:00 +27°C° 0 mm 6 m/s 705 mmHg 53%
17:00 +27°C° 0 mm 6 m/s 705 mmHg 56%
18:00 +25°C° 0 mm 5 m/s 705 mmHg 64%
19:00 +22°C° 0 mm 5 m/s 704 mmHg 73%
20:00 +21°C° 0 mm 4 m/s 704 mmHg 81%
21:00 +20°C° 0 mm 3 m/s 704 mmHg 80%
22:00 +20°C° 0 mm 3 m/s 704 mmHg 80%
23:00 +19°C° 0 mm 3 m/s 703 mmHg 80%

9 Août, Dimanche

Heure Température Précipitation Vent Pression Humidité
00:00 +19°C° 0 mm 3 m/s 703 mmHg 75%
01:00 +19°C° 0 mm 3 m/s 703 mmHg 71%
02:00 +19°C° 0 mm 2 m/s 702 mmHg 66%
03:00 +19°C° 0 mm 3 m/s 702 mmHg 68%
04:00 +19°C° 0 mm 3 m/s 702 mmHg 69%
05:00 +19°C° 0 mm 3 m/s 702 mmHg 70%
06:00 +21°C° 0 mm 3 m/s 702 mmHg 68%
07:00 +22°C° 0 mm 4 m/s 702 mmHg 67%
08:00 +25°C° 0 mm 5 m/s 703 mmHg 66%
09:00 +26°C° 0 mm 5 m/s 703 mmHg 63%
10:00 +27°C° 0 mm 5 m/s 703 mmHg 60%
11:00 +28°C° 0 mm 5 m/s 704 mmHg 57%
12:00 +27°C° 0.1 mm 5 m/s 704 mmHg 59%
13:00 +27°C° 0.1 mm 6 m/s 704 mmHg 60%
14:00 +27°C° 0.1 mm 6 m/s 704 mmHg 62%
15:00 +27°C° 0 mm 6 m/s 704 mmHg 63%
16:00 +26°C° 0 mm 6 m/s 704 mmHg 64%
17:00 +26°C° 0 mm 7 m/s 703 mmHg 65%
18:00 +24°C° 0 mm 6 m/s 703 mmHg 70%
19:00 +23°C° 0 mm 6 m/s 703 mmHg 76%
20:00 +21°C° 0 mm 5 m/s 703 mmHg 81%
21:00 +21°C° 0 mm 5 m/s 703 mmHg 78%
22:00 +21°C° 0 mm 5 m/s 703 mmHg 76%
23:00 +21°C° 0 mm 5 m/s 703 mmHg 73%

10 Août, Lundi

Heure Température Précipitation Vent Pression Humidité
00:00 +21°C° 0 mm 5 m/s 703 mmHg 75%
01:00 +21°C° 0 mm 5 m/s 702 mmHg 78%
02:00 +21°C° 0 mm 5 m/s 702 mmHg 81%
03:00 +21°C° 0 mm 5 m/s 702 mmHg 83%
04:00 +21°C° 0 mm 5 m/s 702 mmHg 86%
05:00 +21°C° 0 mm 5 m/s 702 mmHg 89%
06:00 +22°C° 0.1 mm 5 m/s 702 mmHg 84%
07:00 +22°C° 0.1 mm 5 m/s 703 mmHg 79%
08:00 +23°C° 0.1 mm 6 m/s 703 mmHg 74%
09:00 +24°C° 0.1 mm 6 m/s 703 mmHg 71%
10:00 +26°C° 0.1 mm 6 m/s 704 mmHg 68%
11:00 +26°C° 0.1 mm 6 m/s 704 mmHg 65%
12:00 +27°C° 0 mm 6 m/s 704 mmHg 64%
13:00 +27°C° 0 mm 7 m/s 704 mmHg 64%
14:00 +27°C° 0 mm 7 m/s 705 mmHg 63%
15:00 +26°C° 0 mm 6 m/s 704 mmHg 63%
16:00 +26°C° 0 mm 6 m/s 704 mmHg 64%
17:00 +26°C° 0 mm 6 m/s 704 mmHg 64%
18:00 +23°C° 0 mm 6 m/s 704 mmHg 69%
19:00 +22°C° 0 mm 5 m/s 704 mmHg 73%
20:00 +21°C° 0 mm 5 m/s 704 mmHg 78%
21:00 +21°C° 0 mm 4 m/s 705 mmHg 75%
22:00 +21°C° 0 mm 4 m/s 705 mmHg 72%
23:00 +21°C° 0 mm 4 m/s 705 mmHg 70%

11 Août, Mardi

Heure Température Précipitation Vent Pression Humidité
00:00 +21°C° 0 mm 4 m/s 705 mmHg 68%
01:00 +21°C° 0 mm 4 m/s 705 mmHg 67%
02:00 +21°C° 0 mm 5 m/s 705 mmHg 66%
03:00 +21°C° 0 mm 5 m/s 705 mmHg 69%
04:00 +20°C° 0 mm 5 m/s 704 mmHg 72%
05:00 +20°C° 0 mm 5 m/s 704 mmHg 76%
06:00 +22°C° 0 mm 5 m/s 705 mmHg 69%
07:00 +23°C° 0 mm 5 m/s 705 mmHg 62%
08:00 +24°C° 0 mm 6 m/s 706 mmHg 56%
09:00 +26°C° 0 mm 6 m/s 706 mmHg 52%
10:00 +27°C° 0 mm 6 m/s 706 mmHg 47%
11:00 +28°C° 0 mm 6 m/s 707 mmHg 43%
12:00 +28°C° 0 mm 6 m/s 707 mmHg 44%
13:00 +28°C° 0 mm 6 m/s 707 mmHg 45%
14:00 +28°C° 0 mm 7 m/s 707 mmHg 46%
15:00 +28°C° 0 mm 6 m/s 707 mmHg 46%
16:00 +27°C° 0 mm 6 m/s 706 mmHg 46%
17:00 +27°C° 0 mm 6 m/s 706 mmHg 47%
18:00 +24°C° 0 mm 6 m/s 706 mmHg 50%
19:00 +22°C° 0 mm 5 m/s 706 mmHg 53%
20:00 +21°C° 0 mm 5 m/s 706 mmHg 56%
21:00 +21°C° 0 mm 5 m/s 706 mmHg 53%
22:00 +21°C° 0 mm 4 m/s 706 mmHg 51%
23:00 +21°C° 0 mm 4 m/s 706 mmHg 48%
Voir plus